Tiempo cada hora Dahnovici

Hoy, 26 Noviembre, Jueves

Tiempo Temperatura Precipitaciones Viento Presión Humedad
00:00 +4°C° 0 mm 1 mps 751 mmHg 56%
01:00 +3°C° 0 mm 1 mps 751 mmHg 57%
02:00 +3°C° 0 mm 1 mps 751 mmHg 58%
03:00 +3°C° 0 mm 1 mps 751 mmHg 59%
04:00 +2°C° 0 mm 1 mps 751 mmHg 61%
05:00 +2°C° 0 mm 1 mps 751 mmHg 62%
06:00 +1°C° 0 mm 0 mps 751 mmHg 62%
07:00 +1°C° 0 mm 0 mps 751 mmHg 62%
08:00 +1°C° 0 mm 0 mps 751 mmHg 62%
09:00 +2°C° 0 mm 0 mps 751 mmHg 57%
10:00 +5°C° 0 mm 1 mps 751 mmHg 51%
11:00 +7°C° 0 mm 1 mps 751 mmHg 45%
12:00 +7°C° 0 mm 1 mps 751 mmHg 43%
13:00 +7°C° 0 mm 2 mps 751 mmHg 40%
14:00 +8°C° 0 mm 2 mps 751 mmHg 38%
15:00 +7°C° 0 mm 2 mps 750 mmHg 43%
16:00 +6°C° 0 mm 2 mps 750 mmHg 47%
17:00 +4°C° 0 mm 2 mps 750 mmHg 52%
18:00 +4°C° 0 mm 2 mps 750 mmHg 56%
19:00 +3°C° 0 mm 2 mps 750 mmHg 61%
20:00 +2°C° 0 mm 3 mps 749 mmHg 65%
21:00 +2°C° 0 mm 2 mps 749 mmHg 69%
22:00 +2°C° 0 mm 2 mps 749 mmHg 72%
23:00 +2°C° 0 mm 2 mps 749 mmHg 75%

Mañana, 27 Noviembre, Viernes

Tiempo Temperatura Precipitaciones Viento Presión Humedad
00:00 +1°C° 0 mm 2 mps 749 mmHg 76%
01:00 +1°C° 0 mm 2 mps 749 mmHg 76%
02:00 +1°C° 0 mm 2 mps 749 mmHg 77%
03:00 -1°C° 0 mm 2 mps 749 mmHg 78%
04:00 -1°C° 0 mm 2 mps 748 mmHg 79%
05:00 -1°C° 0 mm 2 mps 748 mmHg 81%
06:00 +1°C° 0 mm 1 mps 748 mmHg 80%
07:00 +1°C° 0 mm 1 mps 748 mmHg 79%
08:00 +1°C° 0 mm 1 mps 748 mmHg 79%
09:00 +2°C° 0 mm 1 mps 748 mmHg 71%
10:00 +4°C° 0 mm 1 mps 748 mmHg 63%
11:00 +5°C° 0 mm 1 mps 748 mmHg 56%
12:00 +6°C° 0 mm 1 mps 748 mmHg 52%
13:00 +7°C° 0 mm 1 mps 747 mmHg 49%
14:00 +7°C° 0 mm 1 mps 747 mmHg 45%
15:00 +6°C° 0 mm 1 mps 747 mmHg 49%
16:00 +5°C° 0 mm 1 mps 747 mmHg 53%
17:00 +4°C° 0 mm 1 mps 747 mmHg 57%
18:00 +4°C° 0 mm 1 mps 747 mmHg 58%
19:00 +4°C° 0 mm 1 mps 747 mmHg 59%
20:00 +3°C° 0 mm 1 mps 747 mmHg 60%
21:00 +3°C° 0 mm 1 mps 747 mmHg 61%
22:00 +3°C° 0 mm 1 mps 747 mmHg 61%
23:00 +3°C° 0 mm 1 mps 747 mmHg 62%

Pasado mañana, 28 Noviembre, Sábado

Tiempo Temperatura Precipitaciones Viento Presión Humedad
00:00 +3°C° 0 mm 1 mps 747 mmHg 63%
01:00 +2°C° 0 mm 1 mps 747 mmHg 64%
02:00 +2°C° 0 mm 1 mps 747 mmHg 66%
03:00 +2°C° 0 mm 1 mps 747 mmHg 68%
04:00 +2°C° 0 mm 1 mps 747 mmHg 70%
05:00 +2°C° 0 mm 1 mps 746 mmHg 72%
06:00 +2°C° 0 mm 1 mps 746 mmHg 74%
07:00 +2°C° 0 mm 1 mps 746 mmHg 76%
08:00 +2°C° 0 mm 1 mps 746 mmHg 78%
09:00 +3°C° 0 mm 1 mps 746 mmHg 75%
10:00 +4°C° 0 mm 1 mps 746 mmHg 72%
11:00 +5°C° 0 mm 1 mps 746 mmHg 70%
12:00 +5°C° 0 mm 1 mps 746 mmHg 69%
13:00 +6°C° 0 mm 1 mps 745 mmHg 69%
14:00 +6°C° 0 mm 1 mps 745 mmHg 68%
15:00 +5°C° 0 mm 1 mps 745 mmHg 72%
16:00 +5°C° 0 mm 1 mps 745 mmHg 76%
17:00 +4°C° 0 mm 1 mps 744 mmHg 79%
18:00 +4°C° 0 mm 1 mps 744 mmHg 80%
19:00 +3°C° 0 mm 0 mps 745 mmHg 82%
20:00 +2°C° 0 mm 0 mps 745 mmHg 83%
21:00 +2°C° 0 mm 0 mps 745 mmHg 84%
22:00 +2°C° 0 mm 0 mps 744 mmHg 85%
23:00 +2°C° 0 mm 0 mps 744 mmHg 86%

29 Noviembre, Domingo

Tiempo Temperatura Precipitaciones Viento Presión Humedad
00:00 +2°C° 0 mm 0 mps 744 mmHg 87%
01:00 +3°C° 0 mm 1 mps 744 mmHg 88%
02:00 +2°C° 0 mm 1 mps 744 mmHg 89%
03:00 +2°C° 0 mm 1 mps 745 mmHg 90%
04:00 +2°C° 0 mm 1 mps 745 mmHg 91%
05:00 +2°C° 0 mm 1 mps 745 mmHg 93%
06:00 +3°C° 0 mm 1 mps 745 mmHg 93%
07:00 +3°C° 0 mm 1 mps 745 mmHg 94%
08:00 +3°C° 0 mm 1 mps 745 mmHg 94%
09:00 +3°C° 0 mm 1 mps 745 mmHg 93%
10:00 +4°C° 0 mm 1 mps 745 mmHg 91%
11:00 +4°C° 0 mm 1 mps 746 mmHg 90%
12:00 +4°C° 0.1 mm 1 mps 746 mmHg 87%
13:00 +4°C° 0.1 mm 1 mps 746 mmHg 85%
14:00 +4°C° 0.1 mm 2 mps 745 mmHg 83%
15:00 +4°C° 0 mm 1 mps 746 mmHg 83%
16:00 +4°C° 0 mm 1 mps 746 mmHg 83%
17:00 +3°C° 0 mm 1 mps 746 mmHg 82%
18:00 +3°C° 0 mm 1 mps 747 mmHg 81%
19:00 +3°C° 0 mm 1 mps 747 mmHg 80%
20:00 +3°C° 0 mm 1 mps 748 mmHg 79%
21:00 +3°C° 0 mm 1 mps 748 mmHg 80%
22:00 +3°C° 0 mm 1 mps 748 mmHg 81%
23:00 +1°C° 0 mm 2 mps 748 mmHg 82%

30 Noviembre, Lunes

Tiempo Temperatura Precipitaciones Viento Presión Humedad
00:00 +1°C° 0 mm 2 mps 748 mmHg 84%
01:00 +1°C° 0 mm 2 mps 748 mmHg 85%
02:00 +1°C° 0 mm 2 mps 748 mmHg 87%
03:00 +1°C° 0.3 mm 2 mps 748 mmHg 90%
04:00 0°C° 0.3 mm 3 mps 748 mmHg 92%
05:00 -1°C° 0.3 mm 3 mps 749 mmHg 95%
06:00 -1°C° 1.1 mm 3 mps 749 mmHg 96%
07:00 -1°C° 1.1 mm 3 mps 749 mmHg 97%
08:00 -2°C° 1.1 mm 4 mps 749 mmHg 98%
09:00 -2°C° 0.6 mm 4 mps 750 mmHg 98%
10:00 -1°C° 0.6 mm 4 mps 750 mmHg 97%
11:00 -1°C° 0.6 mm 4 mps 750 mmHg 97%
12:00 -1°C° 0.3 mm 4 mps 750 mmHg 98%
13:00 -1°C° 0.3 mm 4 mps 750 mmHg 98%
14:00 0°C° 0.3 mm 4 mps 750 mmHg 98%
15:00 0°C° 0.1 mm 4 mps 750 mmHg 98%
16:00 0°C° 0.1 mm 4 mps 750 mmHg 98%
17:00 0°C° 0.1 mm 4 mps 750 mmHg 98%
18:00 0°C° 0 mm 4 mps 751 mmHg 97%
19:00 0°C° 0 mm 4 mps 751 mmHg 97%
20:00 0°C° 0 mm 4 mps 751 mmHg 97%
21:00 0°C° 0 mm 4 mps 751 mmHg 96%
22:00 0°C° 0 mm 4 mps 751 mmHg 96%
23:00 0°C° 0 mm 4 mps 751 mmHg 96%

1 Diciembre, Martes

Tiempo Temperatura Precipitaciones Viento Presión Humedad
00:00 0°C° 0 mm 4 mps 751 mmHg 95%
01:00 0°C° 0 mm 4 mps 751 mmHg 95%
02:00 0°C° 0 mm 4 mps 751 mmHg 95%
03:00 0°C° 0 mm 4 mps 751 mmHg 95%
04:00 0°C° 0 mm 4 mps 751 mmHg 95%
05:00 0°C° 0 mm 4 mps 751 mmHg 95%
06:00 0°C° 0 mm 4 mps 751 mmHg 95%
07:00 0°C° 0 mm 4 mps 751 mmHg 94%
08:00 0°C° 0 mm 4 mps 751 mmHg 94%
09:00 +1°C° 0 mm 4 mps 751 mmHg 92%
10:00 +1°C° 0 mm 4 mps 752 mmHg 91%
11:00 +1°C° 0 mm 4 mps 752 mmHg 89%
12:00 +1°C° 0 mm 4 mps 751 mmHg 88%
13:00 +3°C° 0 mm 4 mps 751 mmHg 87%
14:00 +3°C° 0 mm 4 mps 751 mmHg 85%
15:00 +3°C° 0 mm 4 mps 750 mmHg 86%
16:00 +3°C° 0 mm 4 mps 750 mmHg 87%
17:00 +3°C° 0 mm 3 mps 750 mmHg 87%
18:00 +2°C° 0 mm 3 mps 750 mmHg 87%
19:00 +2°C° 0 mm 3 mps 751 mmHg 87%
20:00 +3°C° 0 mm 2 mps 751 mmHg 87%
21:00 +3°C° 0 mm 2 mps 751 mmHg 87%
22:00 +3°C° 0 mm 2 mps 750 mmHg 87%
23:00 +3°C° 0 mm 2 mps 750 mmHg 86%
Mostrar más

Necesitamos Su Consentimiento

Meteoprog y nuestros Proveedores de Servicios pueden almacenar y acceder a sus datos personales como cookies, identificadores de dispositivo u otras tecnologías similares de su dispositivo y procesar dichos datos para personalizar contenido y anuncios, además de ofrecer funciones de redes sociales y analizar el tráfico.

  • Almacenar y/o acceder a información en su dispositivo

    Se puede almacenar o acceder a cookies, identificadores de dispositivo u otra información de su dispositivo para los fines anteriormente indicados.

  • Anuncios y contenido personalizados, medición de anuncios y contenido, percepciones del público, y desarrollo de productos

    Los anuncios y el contenido pueden personalizarse en base a su perfil. Se pueden añadir más datos para personalizar mejor los anuncios y contenidos. Se puede medir el rendimiento de los anuncios y contenidos. Se puede obtener la percepción sobre el público que ha visto los anuncios y contenidos. Dichos datos pueden usarse para desarrollar o mejorar la experiencia del usuario, sistemas y software.

Al hacer clic en ‘Estoy De Acuerdo’ usted permitirá el uso de las cookies, identificadores de dispositivo, balizas web u otras tecnologías similares indicadas. Su configuración puede cambiarse desde el navegador de su dispositivo.

Para ciertos fines, los intereses legítimos pueden ser considerados por encima del consentimiento. Puede leer más sobre ello en nuestra Política de Privacidad y Cookies.